User: anonymous   Login
Location: Dalton
(34.7700°N, 84.9700°W)
Time: 17:28:05
(UTC-04:00)
Language:

Tiangong 2 - Orbit

View from above orbital plane
View from above orbital plane
View from above satellite
View from above satellite

Ground track
Ground track

The orbit data is extracted from the following two-line orbital elements,

1 41765U 16057A   17293.44732025  .00005085  00000-0  67624-4 0  9998
2 41765  42.7842 330.7481 0002659   7.6524   9.9734 15.59236813 62535
Epoch (UTC): 20 October 2017 10:44:08
Eccentricity: 0.0002659
inclination: 42.7842°
perigee height: 388 km
apogee height: 391 km
right ascension of ascending node: 330.7481°
argument of perigee: 7.6524°
revolutions per day: 15.59236813
mean anomaly at epoch: 9.9734°
orbit number at epoch: 6253

The dashed part of the orbit path shows where the satellite is in the earth's shadow,  

DLR